Time,TemperatureF,DewpointF,PressureIn,WindDirection,WindDirectionDegrees,WindSpeedMPH,WindSpeedGustMPH,Humidity,HourlyPrecipIn,Conditions,Clouds,dailyrainin,SoftwareType,DateUTC
2013-05-06 00:07:00,54.9,54.3,30.00,NNE,30,0.0,0.9,98,0.00,,,0.04,VWS V14.00,2013-05-06 04:07:00,
2013-05-06 00:12:00,54.9,54.3,30.00,SE,142,0.0,0.0,98,0.00,,,0.04,VWS V14.00,2013-05-06 04:12:00,
2013-05-06 00:17:00,54.9,54.3,30.00,SE,142,0.0,0.0,98,0.00,,,0.04,VWS V14.00,2013-05-06 04:17:00,
2013-05-06 00:22:00,54.9,54.3,30.00,North,8,0.0,0.9,98,0.00,,,0.04,VWS V14.00,2013-05-06 04:22:00,
2013-05-06 00:27:00,54.9,54.3,30.00,SSE,165,0.0,0.0,98,0.00,,,0.04,VWS V14.00,2013-05-06 04:27:00,
2013-05-06 00:32:00,54.9,54.3,30.00,WNW,300,0.0,0.0,98,0.00,,,0.04,VWS V14.00,2013-05-06 04:32:00,
2013-05-06 00:38:00,54.9,54.3,30.00,SE,142,0.0,2.7,98,0.00,,,0.04,VWS V14.00,2013-05-06 04:38:00,
2013-05-06 00:43:00,54.9,54.3,30.00,West,278,0.0,1.3,98,0.00,,,0.04,VWS V14.00,2013-05-06 04:43:00,
2013-05-06 00:48:00,54.7,54.1,30.00,SE,142,0.0,1.1,98,0.00,,,0.04,VWS V14.00,2013-05-06 04:48:00,
2013-05-06 00:53:00,54.7,54.1,30.00,SSE,165,0.0,1.6,98,0.00,,,0.04,VWS V14.00,2013-05-06 04:53:00,
2013-05-06 00:58:00,54.9,54.3,30.00,North,8,0.0,3.4,98,0.00,,,0.04,VWS V14.00,2013-05-06 04:58:00,
2013-05-06 01:03:00,54.9,54.3,30.00,East,98,2.2,3.4,98,0.00,,,0.04,VWS V14.00,2013-05-06 05:03:00,
2013-05-06 01:08:00,54.9,54.3,30.00,ESE,120,0.0,0.0,98,0.00,,,0.04,VWS V14.00,2013-05-06 05:08:00,
2013-05-06 01:13:00,54.7,54.1,30.00,SSE,165,1.6,1.6,98,0.00,,,0.04,VWS V14.00,2013-05-06 05:13:00,
2013-05-06 01:18:00,54.7,54.1,30.00,NNE,30,0.0,4.3,98,0.00,,,0.04,VWS V14.00,2013-05-06 05:18:00,
2013-05-06 01:23:00,54.7,54.1,30.00,East,98,1.1,2.9,98,0.04,,,0.08,VWS V14.00,2013-05-06 05:23:00,
2013-05-06 01:28:00,54.7,54.1,30.00,ESE,120,0.9,1.3,98,0.04,,,0.08,VWS V14.00,2013-05-06 05:28:00,
2013-05-06 01:33:00,54.7,54.1,30.00,East,98,0.0,0.0,98,0.04,,,0.08,VWS V14.00,2013-05-06 05:33:00,
2013-05-06 01:39:00,54.7,54.1,30.00,ESE,120,0.0,2.5,98,0.04,,,0.08,VWS V14.00,2013-05-06 05:39:00,
2013-05-06 01:44:00,54.7,54.1,29.97,SE,142,0.0,1.1,98,0.04,,,0.08,VWS V14.00,2013-05-06 05:44:00,
2013-05-06 01:49:00,54.7,54.1,29.97,WNW,300,0.0,0.0,98,0.04,,,0.08,VWS V14.00,2013-05-06 05:49:00,
2013-05-06 01:54:00,54.7,54.1,29.97,SE,142,0.9,2.0,98,0.04,,,0.08,VWS V14.00,2013-05-06 05:54:00,
2013-05-06 01:59:00,54.7,54.1,29.97,SE,142,1.6,2.5,98,0.04,,,0.08,VWS V14.00,2013-05-06 05:59:00,
2013-05-06 02:04:00,54.7,54.1,29.97,North,8,1.1,2.7,98,0.04,,,0.08,VWS V14.00,2013-05-06 06:04:00,
2013-05-06 02:09:00,54.9,54.3,29.97,NNE,30,0.0,4.0,98,0.04,,,0.08,VWS V14.00,2013-05-06 06:09:00,
2013-05-06 02:14:00,54.7,54.1,29.97,SW,232,0.0,0.0,98,0.04,,,0.08,VWS V14.00,2013-05-06 06:14:00,
2013-05-06 02:19:00,54.7,54.1,29.97,SE,142,0.0,1.6,98,0.04,,,0.08,VWS V14.00,2013-05-06 06:19:00,
2013-05-06 02:24:00,54.7,54.1,29.97,NE,52,2.5,2.5,98,0.04,,,0.08,VWS V14.00,2013-05-06 06:24:00,
2013-05-06 02:29:00,54.7,54.1,29.94,SSW,210,0.0,2.7,98,0.00,,,0.08,VWS V14.00,2013-05-06 06:29:00,
2013-05-06 02:34:00,54.7,54.1,29.94,SE,142,0.0,2.0,98,0.00,,,0.08,VWS V14.00,2013-05-06 06:34:00,
2013-05-06 02:40:00,54.9,54.3,29.94,ESE,120,3.6,3.6,98,0.00,,,0.08,VWS V14.00,2013-05-06 06:40:00,
2013-05-06 02:45:00,54.9,54.3,29.94,SE,142,0.0,4.3,98,0.00,,,0.08,VWS V14.00,2013-05-06 06:45:00,
2013-05-06 02:50:00,54.9,54.3,29.94,North,8,0.0,0.0,98,0.00,,,0.08,VWS V14.00,2013-05-06 06:50:00,
2013-05-06 02:55:00,54.9,54.3,29.94,SE,142,0.0,2.5,98,0.00,,,0.08,VWS V14.00,2013-05-06 06:55:00,
2013-05-06 03:00:00,54.9,54.3,29.94,SSE,165,0.0,2.7,98,0.00,,,0.08,VWS V14.00,2013-05-06 07:00:00,
2013-05-06 03:05:00,54.9,54.3,29.94,SSE,165,0.0,0.0,98,0.00,,,0.08,VWS V14.00,2013-05-06 07:05:00,
2013-05-06 03:10:00,54.9,54.3,29.94,ESE,120,2.0,2.9,98,0.00,,,0.08,VWS V14.00,2013-05-06 07:10:00,
2013-05-06 03:15:00,54.9,54.3,29.91,ESE,120,1.1,3.8,98,0.00,,,0.08,VWS V14.00,2013-05-06 07:15:00,
2013-05-06 03:20:00,54.9,54.3,29.91,SSE,165,1.1,2.7,98,0.00,,,0.08,VWS V14.00,2013-05-06 07:20:00,
2013-05-06 03:25:00,54.9,54.3,29.91,SE,142,1.3,3.1,98,0.00,,,0.08,VWS V14.00,2013-05-06 07:25:00,
2013-05-06 03:30:00,54.9,54.3,29.91,SE,142,0.0,4.0,98,0.00,,,0.08,VWS V14.00,2013-05-06 07:30:00,
2013-05-06 03:35:00,54.9,54.3,29.91,NNE,30,1.6,2.0,98,0.00,,,0.08,VWS V14.00,2013-05-06 07:35:00,
2013-05-06 03:41:00,54.9,54.3,29.94,East,98,0.0,5.8,98,0.00,,,0.08,VWS V14.00,2013-05-06 07:41:00,
2013-05-06 03:46:00,54.9,54.3,29.94,NNE,30,0.9,0.9,98,0.00,,,0.08,VWS V14.00,2013-05-06 07:46:00,
2013-05-06 03:51:00,54.9,54.3,29.94,SE,142,3.6,3.6,98,0.00,,,0.08,VWS V14.00,2013-05-06 07:51:00,
2013-05-06 03:56:00,55.0,54.5,29.94,North,8,0.0,2.5,98,0.05,,,0.13,VWS V14.00,2013-05-06 07:56:00,
2013-05-06 04:01:00,55.0,54.5,29.94,ESE,120,0.9,0.9,98,0.05,,,0.13,VWS V14.00,2013-05-06 08:01:00,
2013-05-06 04:06:00,55.0,54.5,29.94,SE,142,1.3,1.6,98,0.05,,,0.13,VWS V14.00,2013-05-06 08:06:00,
2013-05-06 04:11:00,55.0,54.5,29.94,SE,142,0.0,2.2,98,0.05,,,0.13,VWS V14.00,2013-05-06 08:11:00,
2013-05-06 04:16:00,55.0,54.5,29.94,SW,232,0.0,0.0,98,0.05,,,0.13,VWS V14.00,2013-05-06 08:16:00,
2013-05-06 04:21:00,55.0,54.5,29.94,SSE,165,0.0,0.0,98,0.05,,,0.13,VWS V14.00,2013-05-06 08:21:00,
2013-05-06 04:26:00,55.0,54.5,29.91,SSE,165,0.0,3.1,98,0.05,,,0.13,VWS V14.00,2013-05-06 08:26:00,
2013-05-06 04:31:00,55.0,54.5,29.91,SW,232,0.0,0.0,98,0.05,,,0.13,VWS V14.00,2013-05-06 08:31:00,
2013-05-06 04:36:00,55.0,54.5,29.91,SE,142,0.0,2.5,98,0.05,,,0.13,VWS V14.00,2013-05-06 08:36:00,
2013-05-06 04:41:00,55.0,54.5,29.94,SSE,165,0.0,0.0,98,0.05,,,0.13,VWS V14.00,2013-05-06 08:41:00,
2013-05-06 04:46:00,55.0,54.5,29.94,NNE,30,0.0,2.5,98,0.05,,,0.13,VWS V14.00,2013-05-06 08:46:00,
2013-05-06 04:51:00,55.2,54.7,29.94,ENE,75,0.0,4.3,98,0.05,,,0.13,VWS V14.00,2013-05-06 08:51:00,
2013-05-06 04:56:00,55.2,54.7,29.94,SE,142,0.0,3.6,98,0.05,,,0.13,VWS V14.00,2013-05-06 08:56:00,
2013-05-06 05:01:00,55.2,54.7,29.94,SE,142,0.0,0.0,98,0.00,,,0.13,VWS V14.00,2013-05-06 09:01:00,
2013-05-06 05:06:00,55.2,54.7,29.94,WNW,300,0.0,0.0,98,0.00,,,0.13,VWS V14.00,2013-05-06 09:06:00,
2013-05-06 05:11:00,55.2,54.7,29.94,NW,322,0.0,2.7,98,0.00,,,0.13,VWS V14.00,2013-05-06 09:11:00,
2013-05-06 05:16:00,55.2,54.7,29.94,West,278,2.2,2.9,98,0.00,,,0.13,VWS V14.00,2013-05-06 09:16:00,
2013-05-06 05:21:00,55.2,54.7,29.94,SE,142,0.0,3.1,98,0.00,,,0.13,VWS V14.00,2013-05-06 09:21:00,
2013-05-06 05:26:00,55.2,54.7,29.94,SE,142,0.0,3.4,98,0.00,,,0.13,VWS V14.00,2013-05-06 09:26:00,
2013-05-06 05:31:00,55.2,54.7,29.94,SE,142,0.9,4.0,98,0.00,,,0.13,VWS V14.00,2013-05-06 09:31:00,
2013-05-06 05:36:00,55.2,54.7,29.94,South,188,0.0,3.1,98,0.00,,,0.13,VWS V14.00,2013-05-06 09:36:00,
2013-05-06 05:41:00,55.2,54.7,29.91,East,98,2.5,2.5,98,0.00,,,0.13,VWS V14.00,2013-05-06 09:41:00,
2013-05-06 05:46:00,55.2,54.7,29.91,East,98,0.0,2.9,98,0.00,,,0.13,VWS V14.00,2013-05-06 09:46:00,
2013-05-06 05:51:00,55.2,54.7,29.91,East,98,0.0,2.9,98,0.00,,,0.13,VWS V14.00,2013-05-06 09:51:00,
2013-05-06 05:56:00,55.2,54.7,29.94,NNE,30,0.0,3.1,98,0.00,,,0.13,VWS V14.00,2013-05-06 09:56:00,
2013-05-06 06:06:00,55.2,54.7,29.94,SE,142,0.0,2.5,98,0.00,,,0.13,VWS V14.00,2013-05-06 10:06:00,
2013-05-06 06:11:00,55.2,54.7,29.91,North,8,1.1,1.1,98,0.00,,,0.13,VWS V14.00,2013-05-06 10:11:00,
2013-05-06 06:16:00,55.2,54.7,29.91,South,188,0.0,0.0,98,0.00,,,0.13,VWS V14.00,2013-05-06 10:16:00,
2013-05-06 06:21:00,55.2,54.7,29.91,South,188,0.0,0.0,98,0.00,,,0.13,VWS V14.00,2013-05-06 10:21:00,
2013-05-06 06:26:00,55.2,54.7,29.91,ESE,120,0.0,2.2,98,0.00,,,0.13,VWS V14.00,2013-05-06 10:26:00,
2013-05-06 06:32:00,55.2,54.7,29.91,North,8,0.0,0.0,98,0.00,,,0.13,VWS V14.00,2013-05-06 10:32:00,
2013-05-06 06:37:00,55.2,54.7,29.91,NNE,30,0.0,0.0,98,0.00,,,0.13,VWS V14.00,2013-05-06 10:37:00,
2013-05-06 06:42:00,55.2,54.7,29.91,South,188,0.0,2.5,98,0.00,,,0.13,VWS V14.00,2013-05-06 10:42:00,
2013-05-06 06:47:00,55.2,54.7,29.91,SW,232,0.0,0.0,98,0.00,,,0.13,VWS V14.00,2013-05-06 10:47:00,
2013-05-06 06:52:00,55.2,54.7,29.91,East,98,0.0,0.0,98,0.00,,,0.13,VWS V14.00,2013-05-06 10:52:00,
2013-05-06 06:57:00,55.4,54.8,29.91,East,98,3.6,4.9,98,0.00,,,0.13,VWS V14.00,2013-05-06 10:57:00,
2013-05-06 07:02:00,55.4,54.8,29.91,WSW,255,0.0,0.9,98,0.00,,,0.13,VWS V14.00,2013-05-06 11:02:00,
2013-05-06 07:07:00,55.4,54.8,29.91,SE,142,0.0,0.0,98,0.00,,,0.13,VWS V14.00,2013-05-06 11:07:00,
2013-05-06 07:12:00,55.4,54.8,29.94,NW,322,1.3,1.3,98,0.00,,,0.13,VWS V14.00,2013-05-06 11:12:00,
2013-05-06 07:17:00,55.4,54.8,29.94,NNW,345,0.0,0.0,98,0.00,,,0.13,VWS V14.00,2013-05-06 11:17:00,
2013-05-06 07:22:00,55.6,55.0,29.94,East,98,0.0,2.9,98,0.00,,,0.13,VWS V14.00,2013-05-06 11:22:00,
2013-05-06 07:27:00,55.6,55.0,29.94,SSE,165,3.1,3.1,98,0.00,,,0.13,VWS V14.00,2013-05-06 11:27:00,
2013-05-06 07:33:00,55.6,55.0,29.94,ESE,120,2.9,5.4,98,0.00,,,0.13,VWS V14.00,2013-05-06 11:33:00,
2013-05-06 07:38:00,55.8,55.2,29.94,East,98,0.0,1.3,98,0.00,,,0.13,VWS V14.00,2013-05-06 11:38:00,
2013-05-06 07:43:00,55.8,55.2,29.94,ESE,120,0.0,2.7,98,0.00,,,0.13,VWS V14.00,2013-05-06 11:43:00,
2013-05-06 07:48:00,55.8,55.2,29.94,SE,142,0.0,1.3,98,0.00,,,0.13,VWS V14.00,2013-05-06 11:48:00,
2013-05-06 07:53:00,55.8,55.2,29.94,WNW,300,0.0,0.0,98,0.00,,,0.13,VWS V14.00,2013-05-06 11:53:00,
2013-05-06 07:58:00,55.9,55.4,29.94,ENE,75,0.0,2.9,98,0.00,,,0.13,VWS V14.00,2013-05-06 11:58:00,
2013-05-06 08:03:00,55.9,55.4,29.94,East,98,0.0,3.4,98,0.00,,,0.13,VWS V14.00,2013-05-06 12:03:00,
2013-05-06 08:08:00,55.9,55.4,29.94,ESE,120,0.0,2.2,98,0.00,,,0.13,VWS V14.00,2013-05-06 12:08:00,
2013-05-06 08:13:00,56.1,55.6,29.94,SE,142,0.0,2.0,98,0.00,,,0.13,VWS V14.00,2013-05-06 12:13:00,
2013-05-06 08:18:00,56.1,55.6,29.94,NE,52,0.0,3.8,98,0.04,,,0.17,VWS V14.00,2013-05-06 12:18:00,
2013-05-06 08:23:00,56.1,55.6,29.94,NNW,345,0.0,0.0,98,0.04,,,0.17,VWS V14.00,2013-05-06 12:23:00,
2013-05-06 08:28:00,56.3,55.8,29.94,SSE,165,0.0,4.7,98,0.04,,,0.17,VWS V14.00,2013-05-06 12:28:00,
2013-05-06 08:33:00,56.3,55.8,29.94,NW,322,0.0,2.0,98,0.04,,,0.17,VWS V14.00,2013-05-06 12:33:00,
2013-05-06 08:38:00,56.3,55.8,29.94,ESE,120,2.2,2.2,98,0.04,,,0.17,VWS V14.00,2013-05-06 12:38:00,
2013-05-06 08:44:00,56.3,55.8,29.94,NW,322,0.0,0.0,98,0.04,,,0.17,VWS V14.00,2013-05-06 12:44:00,
2013-05-06 08:49:00,56.3,55.8,29.94,SSE,165,0.0,0.0,98,0.04,,,0.17,VWS V14.00,2013-05-06 12:49:00,
2013-05-06 08:54:00,56.5,55.9,29.94,SE,142,0.0,0.0,98,0.04,,,0.17,VWS V14.00,2013-05-06 12:54:00,
2013-05-06 08:59:00,56.5,55.9,29.94,SSE,165,0.0,0.0,98,0.04,,,0.17,VWS V14.00,2013-05-06 12:59:00,
2013-05-06 09:04:00,56.5,55.9,29.94,SE,142,0.0,0.0,98,0.04,,,0.17,VWS V14.00,2013-05-06 13:04:00,
2013-05-06 09:09:00,56.5,55.9,29.94,NE,52,0.0,0.0,98,0.04,,,0.17,VWS V14.00,2013-05-06 13:09:00,
2013-05-06 09:14:00,56.7,56.1,29.94,East,98,0.0,2.9,98,0.04,,,0.17,VWS V14.00,2013-05-06 13:14:00,
2013-05-06 09:19:00,56.7,56.1,29.94,ESE,120,0.0,0.0,98,0.08,,,0.21,VWS V14.00,2013-05-06 13:19:00,
2013-05-06 09:24:00,56.7,56.1,29.94,SE,142,0.0,0.0,98,0.04,,,0.21,VWS V14.00,2013-05-06 13:24:00,
2013-05-06 09:29:00,56.7,56.1,29.94,SE,142,2.0,2.0,98,0.04,,,0.21,VWS V14.00,2013-05-06 13:29:00,
2013-05-06 09:34:00,56.8,56.3,29.94,ESE,120,0.0,4.0,98,0.04,,,0.21,VWS V14.00,2013-05-06 13:34:00,
2013-05-06 09:39:00,56.8,56.3,29.94,ESE,120,2.5,3.4,98,0.04,,,0.21,VWS V14.00,2013-05-06 13:39:00,
2013-05-06 09:44:00,56.8,56.3,29.94,East,98,0.0,6.0,98,0.04,,,0.21,VWS V14.00,2013-05-06 13:44:00,
2013-05-06 09:50:00,57.0,56.5,29.94,SE,142,0.0,6.0,98,0.04,,,0.21,VWS V14.00,2013-05-06 13:50:00,
2013-05-06 09:55:00,57.2,56.6,29.94,ESE,120,0.0,0.0,98,0.04,,,0.21,VWS V14.00,2013-05-06 13:55:00,
2013-05-06 10:00:00,57.2,56.6,29.91,NE,52,0.0,0.0,98,0.04,,,0.21,VWS V14.00,2013-05-06 14:00:00,
2013-05-06 10:05:00,57.4,56.8,29.91,NE,52,0.0,0.0,98,0.04,,,0.21,VWS V14.00,2013-05-06 14:05:00,
2013-05-06 10:10:00,57.6,57.0,29.91,ESE,120,0.0,0.0,98,0.04,,,0.21,VWS V14.00,2013-05-06 14:10:00,
2013-05-06 10:15:00,57.7,57.2,29.91,ESE,120,0.0,3.4,98,0.04,,,0.21,VWS V14.00,2013-05-06 14:15:00,
2013-05-06 10:20:00,57.7,57.2,29.91,ESE,120,0.0,0.0,98,0.04,,,0.21,VWS V14.00,2013-05-06 14:20:00,
2013-05-06 10:25:00,57.9,57.4,29.91,NE,52,0.0,1.6,98,0.00,,,0.21,VWS V14.00,2013-05-06 14:25:00,
2013-05-06 10:30:00,57.9,57.4,29.91,East,98,0.0,2.5,98,0.00,,,0.21,VWS V14.00,2013-05-06 14:30:00,
2013-05-06 10:35:00,58.1,57.5,29.91,SE,142,0.0,0.0,98,0.00,,,0.21,VWS V14.00,2013-05-06 14:35:00,
2013-05-06 10:40:00,58.1,57.5,29.91,SW,232,0.0,2.2,98,0.04,,,0.25,VWS V14.00,2013-05-06 14:40:00,
2013-05-06 10:45:00,58.1,57.5,29.94,NE,52,0.0,0.0,98,0.04,,,0.25,VWS V14.00,2013-05-06 14:45:00,
2013-05-06 10:50:00,58.1,57.5,29.94,ESE,120,0.0,0.0,98,0.04,,,0.25,VWS V14.00,2013-05-06 14:50:00,
2013-05-06 10:55:00,58.1,57.5,29.94,ESE,120,0.0,4.7,98,0.04,,,0.25,VWS V14.00,2013-05-06 14:55:00,
2013-05-06 11:00:00,58.1,57.5,29.94,ESE,120,0.0,1.1,98,0.04,,,0.25,VWS V14.00,2013-05-06 15:00:00,
2013-05-06 11:05:00,58.3,57.7,29.94,East,98,0.0,2.7,98,0.04,,,0.25,VWS V14.00,2013-05-06 15:05:00,
2013-05-06 11:11:00,58.3,57.7,29.91,SE,142,0.0,6.0,98,0.04,,,0.25,VWS V14.00,2013-05-06 15:11:00,
2013-05-06 11:16:00,58.5,57.9,29.91,East,98,1.3,3.1,98,0.04,,,0.25,VWS V14.00,2013-05-06 15:16:00,
2013-05-06 11:21:00,58.5,57.9,29.91,East,98,0.0,1.1,98,0.04,,,0.25,VWS V14.00,2013-05-06 15:21:00,
2013-05-06 11:26:00,58.5,57.9,29.94,East,98,0.0,0.0,98,0.04,,,0.25,VWS V14.00,2013-05-06 15:26:00,
2013-05-06 11:31:00,58.5,57.9,29.94,SE,142,0.9,2.9,98,0.04,,,0.25,VWS V14.00,2013-05-06 15:31:00,
2013-05-06 11:36:00,58.5,57.9,29.94,ESE,120,0.0,0.0,98,0.04,,,0.25,VWS V14.00,2013-05-06 15:36:00,
2013-05-06 11:41:00,58.5,57.9,29.91,SE,142,0.0,2.7,98,0.00,,,0.25,VWS V14.00,2013-05-06 15:41:00,
2013-05-06 11:46:00,58.6,58.1,29.91,SE,142,0.0,0.0,98,0.04,,,0.29,VWS V14.00,2013-05-06 15:46:00,
2013-05-06 11:51:00,58.6,58.1,29.91,NNE,30,0.0,0.0,98,0.04,,,0.29,VWS V14.00,2013-05-06 15:51:00,
2013-05-06 11:56:00,58.6,58.1,29.91,ESE,120,0.0,0.0,98,0.04,,,0.29,VWS V14.00,2013-05-06 15:56:00,
2013-05-06 12:06:00,58.8,58.3,29.91,SSE,165,0.0,0.0,98,0.08,,,0.33,VWS V14.00,2013-05-06 16:06:00,
2013-05-06 12:11:00,58.8,58.3,29.91,SSE,165,0.0,0.0,98,0.08,,,0.33,VWS V14.00,2013-05-06 16:11:00,
2013-05-06 12:16:00,58.8,58.3,29.91,SE,142,0.0,0.0,98,0.13,,,0.38,VWS V14.00,2013-05-06 16:16:00,
2013-05-06 12:21:00,58.8,58.3,29.91,ESE,120,0.0,0.0,98,0.16,,,0.41,VWS V14.00,2013-05-06 16:21:00,
2013-05-06 12:26:00,58.8,58.3,29.88,ESE,120,0.0,0.0,98,0.16,,,0.41,VWS V14.00,2013-05-06 16:26:00,
2013-05-06 12:32:00,58.8,58.3,29.88,ESE,120,0.0,0.0,98,0.16,,,0.41,VWS V14.00,2013-05-06 16:32:00,
2013-05-06 12:37:00,58.8,58.3,29.88,ESE,120,0.0,0.0,98,0.21,,,0.46,VWS V14.00,2013-05-06 16:37:00,
2013-05-06 12:42:00,58.8,58.3,29.88,SE,142,0.0,0.0,98,0.25,,,0.50,VWS V14.00,2013-05-06 16:42:00,
2013-05-06 12:47:00,59.0,58.4,29.88,SE,142,0.0,0.0,98,0.21,,,0.50,VWS V14.00,2013-05-06 16:47:00,
2013-05-06 12:52:00,59.0,58.4,29.88,ESE,120,0.0,0.0,98,0.21,,,0.50,VWS V14.00,2013-05-06 16:52:00,
2013-05-06 12:57:00,59.0,58.4,29.88,ESE,120,0.0,0.0,98,0.25,,,0.54,VWS V14.00,2013-05-06 16:57:00,
2013-05-06 13:02:00,59.0,58.4,29.88,ESE,120,0.0,0.0,98,0.29,,,0.58,VWS V14.00,2013-05-06 17:02:00,
2013-05-06 13:07:00,59.0,58.4,29.88,East,98,0.0,0.0,98,0.33,,,0.66,VWS V14.00,2013-05-06 17:07:00,
2013-05-06 13:12:00,59.2,58.6,29.88,East,98,0.0,0.0,98,0.42,,,0.75,VWS V14.00,2013-05-06 17:12:00,
2013-05-06 13:17:00,59.2,58.6,29.88,ESE,120,0.0,0.0,98,0.41,,,0.79,VWS V14.00,2013-05-06 17:17:00,
2013-05-06 13:22:00,59.2,58.6,29.88,ESE,120,0.0,0.0,98,0.46,,,0.87,VWS V14.00,2013-05-06 17:22:00,
2013-05-06 13:27:00,59.2,58.6,29.88,East,98,0.0,0.0,98,0.50,,,0.91,VWS V14.00,2013-05-06 17:27:00,
2013-05-06 13:33:00,59.2,58.6,29.88,SSE,165,0.0,0.0,98,0.50,,,0.91,VWS V14.00,2013-05-06 17:33:00,
2013-05-06 13:38:00,59.2,58.6,29.88,NNW,345,0.0,0.0,98,0.54,,,1.00,VWS V14.00,2013-05-06 17:38:00,
2013-05-06 13:43:00,59.4,58.8,29.88,East,98,0.0,0.0,98,0.58,,,1.08,VWS V14.00,2013-05-06 17:43:00,
2013-05-06 13:48:00,59.4,58.8,29.88,East,98,0.0,0.0,98,0.58,,,1.08,VWS V14.00,2013-05-06 17:48:00,
2013-05-06 13:53:00,59.7,59.2,29.88,East,98,0.0,0.0,98,0.58,,,1.08,VWS V14.00,2013-05-06 17:53:00,
2013-05-06 13:58:00,60.1,59.5,29.85,East,98,0.0,0.0,98,0.54,,,1.08,VWS V14.00,2013-05-06 17:58:00,
2013-05-06 14:03:00,60.6,60.1,29.85,East,98,0.0,0.0,98,0.50,,,1.08,VWS V14.00,2013-05-06 18:03:00,
2013-05-06 14:08:00,60.6,60.1,29.85,East,98,0.0,0.0,98,0.46,,,1.08,VWS V14.00,2013-05-06 18:08:00,
2013-05-06 14:13:00,61.0,60.4,29.88,East,98,0.0,0.0,98,0.41,,,1.12,VWS V14.00,2013-05-06 18:13:00,
2013-05-06 14:18:00,61.5,61.0,29.88,East,98,0.0,0.0,98,0.37,,,1.12,VWS V14.00,2013-05-06 18:18:00,
2013-05-06 14:23:00,62.1,61.5,29.88,East,98,0.0,0.0,98,0.29,,,1.12,VWS V14.00,2013-05-06 18:23:00,
2013-05-06 14:29:00,62.2,61.7,29.88,ESE,120,0.0,0.0,98,0.21,,,1.12,VWS V14.00,2013-05-06 18:29:00,
2013-05-06 14:34:00,62.1,61.5,29.88,ESE,120,0.0,0.0,98,0.21,,,1.12,VWS V14.00,2013-05-06 18:34:00,
2013-05-06 14:39:00,62.2,61.7,29.88,ESE,120,0.0,0.0,98,0.12,,,1.12,VWS V14.00,2013-05-06 18:39:00,
2013-05-06 14:44:00,62.4,61.8,29.88,ESE,120,0.0,0.0,98,0.08,,,1.12,VWS V14.00,2013-05-06 18:44:00,
2013-05-06 14:49:00,63.5,62.9,29.88,ESE,120,0.0,0.0,98,0.04,,,1.12,VWS V14.00,2013-05-06 18:49:00,
2013-05-06 14:54:00,64.0,63.5,29.88,ESE,120,0.0,0.0,98,0.04,,,1.12,VWS V14.00,2013-05-06 18:54:00,
2013-05-06 14:59:00,64.4,63.8,29.88,ESE,120,0.0,0.0,98,0.04,,,1.12,VWS V14.00,2013-05-06 18:59:00,
2013-05-06 15:04:00,64.4,63.8,29.88,SE,142,0.0,0.0,98,0.04,,,1.12,VWS V14.00,2013-05-06 19:04:00,
2013-05-06 15:09:00,64.8,64.2,29.88,ENE,75,0.0,0.0,98,0.04,,,1.12,VWS V14.00,2013-05-06 19:09:00,
2013-05-06 15:14:00,64.6,62.5,29.85,SE,142,0.0,0.0,93,0.00,,,1.12,VWS V14.00,2013-05-06 19:14:00,
2013-05-06 15:19:00,64.8,62.7,29.85,East,98,0.0,0.0,93,0.00,,,1.12,VWS V14.00,2013-05-06 19:19:00,
2013-05-06 15:24:00,65.1,62.7,29.85,ESE,120,0.0,0.0,92,0.00,,,1.12,VWS V14.00,2013-05-06 19:24:00,
2013-05-06 15:30:00,65.3,62.0,29.85,ESE,120,0.0,0.0,89,0.00,,,1.12,VWS V14.00,2013-05-06 19:30:00,
2013-05-06 15:35:00,65.8,62.5,29.85,ESE,120,0.0,0.0,89,0.00,,,1.12,VWS V14.00,2013-05-06 19:35:00,
2013-05-06 15:40:00,66.0,62.7,29.85,SE,142,0.0,0.0,89,0.00,,,1.12,VWS V14.00,2013-05-06 19:40:00,
2013-05-06 15:45:00,65.7,61.4,29.82,ESE,120,0.0,3.4,86,0.00,,,1.12,VWS V14.00,2013-05-06 19:45:00,
2013-05-06 15:50:00,65.1,61.2,29.82,ESE,120,0.0,0.0,87,0.00,,,1.12,VWS V14.00,2013-05-06 19:50:00,
2013-05-06 15:55:00,64.9,61.0,29.82,ESE,120,0.0,0.0,87,0.00,,,1.12,VWS V14.00,2013-05-06 19:55:00,
2013-05-06 16:00:00,64.8,60.8,29.82,SE,142,0.0,0.0,87,0.00,,,1.12,VWS V14.00,2013-05-06 20:00:00,
2013-05-06 16:05:00,64.6,61.0,29.82,ESE,120,0.0,0.0,88,0.00,,,1.12,VWS V14.00,2013-05-06 20:05:00,
2013-05-06 16:10:00,64.4,60.8,29.82,East,98,0.0,0.0,88,0.00,,,1.12,VWS V14.00,2013-05-06 20:10:00,
2013-05-06 16:15:00,64.4,61.1,29.82,East,98,0.0,0.0,89,0.00,,,1.12,VWS V14.00,2013-05-06 20:15:00,
2013-05-06 16:20:00,64.6,61.6,29.82,East,98,0.0,0.0,90,0.00,,,1.12,VWS V14.00,2013-05-06 20:20:00,
2013-05-06 16:25:00,64.6,61.6,29.82,East,98,0.0,0.0,90,0.00,,,1.12,VWS V14.00,2013-05-06 20:25:00,
2013-05-06 16:31:00,64.4,61.7,29.82,East,98,0.0,0.0,91,0.00,,,1.12,VWS V14.00,2013-05-06 20:31:00,
2013-05-06 16:36:00,64.4,61.7,29.82,East,98,0.0,0.0,91,0.00,,,1.12,VWS V14.00,2013-05-06 20:36:00,
2013-05-06 16:41:00,64.4,61.7,29.85,East,98,0.0,0.0,91,0.00,,,1.12,VWS V14.00,2013-05-06 20:41:00,
2013-05-06 16:46:00,64.2,61.8,29.85,East,98,0.0,0.0,92,0.00,,,1.12,VWS V14.00,2013-05-06 20:46:00,
2013-05-06 16:51:00,64.2,61.8,29.85,East,98,0.0,0.0,92,0.00,,,1.12,VWS V14.00,2013-05-06 20:51:00,
2013-05-06 16:56:00,64.0,61.7,29.82,East,98,0.0,0.0,92,0.00,,,1.12,VWS V14.00,2013-05-06 20:56:00,
2013-05-06 17:01:00,64.0,61.7,29.82,East,98,0.0,0.0,92,0.00,,,1.12,VWS V14.00,2013-05-06 21:01:00,
2013-05-06 17:07:00,63.9,61.8,29.82,East,98,0.0,0.0,93,0.00,,,1.12,VWS V14.00,2013-05-06 21:07:00,
2013-05-06 17:12:00,63.9,61.8,29.82,East,98,0.0,0.0,93,0.00,,,1.12,VWS V14.00,2013-05-06 21:12:00,
2013-05-06 17:17:00,64.4,62.3,29.82,East,98,0.0,0.0,93,0.00,,,1.12,VWS V14.00,2013-05-06 21:17:00,
2013-05-06 17:22:00,65.3,63.2,29.82,East,98,0.0,0.0,93,0.00,,,1.12,VWS V14.00,2013-05-06 21:22:00,
2013-05-06 17:27:00,65.7,63.3,29.82,East,98,0.0,0.0,92,0.00,,,1.12,VWS V14.00,2013-05-06 21:27:00,
2013-05-06 17:32:00,66.0,63.3,29.82,East,98,0.0,0.0,91,0.00,,,1.12,VWS V14.00,2013-05-06 21:32:00,
2013-05-06 17:37:00,65.8,62.5,29.82,East,98,0.0,0.0,89,0.00,,,1.12,VWS V14.00,2013-05-06 21:37:00,
2013-05-06 17:42:00,65.8,62.2,29.82,East,98,0.0,0.0,88,0.00,,,1.12,VWS V14.00,2013-05-06 21:42:00,
2013-05-06 17:47:00,66.2,61.9,29.82,East,98,0.0,0.0,86,0.00,,,1.12,VWS V14.00,2013-05-06 21:47:00,
2013-05-06 17:52:00,66.2,61.9,29.82,East,98,0.0,0.0,86,0.00,,,1.12,VWS V14.00,2013-05-06 21:52:00,
2013-05-06 17:57:00,66.0,61.4,29.82,East,98,0.0,0.0,85,0.00,,,1.12,VWS V14.00,2013-05-06 21:57:00,
2013-05-06 18:06:00,66.0,61.4,29.82,East,98,0.0,0.0,85,0.00,,,1.12,VWS V14.00,2013-05-06 22:06:00,
2013-05-06 18:11:00,66.0,61.7,29.82,East,98,0.0,0.0,86,0.00,,,1.12,VWS V14.00,2013-05-06 22:11:00,
2013-05-06 18:16:00,66.0,61.7,29.82,ESE,120,0.0,0.0,86,0.00,,,1.12,VWS V14.00,2013-05-06 22:16:00,
2013-05-06 18:22:00,65.8,61.2,29.82,ESE,120,0.0,0.0,85,0.00,,,1.12,VWS V14.00,2013-05-06 22:22:00,
2013-05-06 18:27:00,65.7,61.4,29.82,ESE,120,0.0,0.0,86,0.00,,,1.12,VWS V14.00,2013-05-06 22:27:00,
2013-05-06 18:32:00,65.5,61.2,29.82,NNE,30,0.0,0.0,86,0.00,,,1.12,VWS V14.00,2013-05-06 22:32:00,
2013-05-06 18:37:00,65.5,61.5,29.82,SE,142,0.0,0.0,87,0.00,,,1.12,VWS V14.00,2013-05-06 22:37:00,
2013-05-06 18:42:00,65.3,61.7,29.82,SE,142,0.0,0.0,88,0.00,,,1.12,VWS V14.00,2013-05-06 22:42:00,
2013-05-06 18:47:00,64.8,61.1,29.82,SE,142,0.0,0.0,88,0.00,,,1.12,VWS V14.00,2013-05-06 22:47:00,
2013-05-06 18:52:00,64.4,60.5,29.82,ENE,75,0.0,0.0,87,0.00,,,1.12,VWS V14.00,2013-05-06 22:52:00,
2013-05-06 18:57:00,64.4,60.8,29.82,East,98,0.0,0.0,88,0.00,,,1.12,VWS V14.00,2013-05-06 22:57:00,
2013-05-06 19:02:00,64.2,60.6,29.82,East,98,0.0,0.0,88,0.00,,,1.12,VWS V14.00,2013-05-06 23:02:00,
2013-05-06 19:07:00,64.0,61.0,29.82,NW,322,0.0,0.0,90,0.00,,,1.12,VWS V14.00,2013-05-06 23:07:00,
2013-05-06 19:12:00,64.0,60.7,29.85,NW,322,0.0,0.0,89,0.00,,,1.12,VWS V14.00,2013-05-06 23:12:00,
2013-05-06 19:17:00,63.9,60.6,29.85,ESE,120,0.0,0.0,89,0.00,,,1.12,VWS V14.00,2013-05-06 23:17:00,
2013-05-06 19:23:00,63.7,60.4,29.85,ESE,120,0.0,0.0,89,0.00,,,1.12,VWS V14.00,2013-05-06 23:23:00,
2013-05-06 19:28:00,63.3,60.3,29.85,ESE,120,0.0,0.0,90,0.00,,,1.12,VWS V14.00,2013-05-06 23:28:00,
2013-05-06 19:33:00,63.0,60.0,29.85,ESE,120,0.0,0.0,90,0.00,,,1.12,VWS V14.00,2013-05-06 23:33:00,
2013-05-06 19:38:00,62.8,59.8,29.85,ESE,120,0.0,0.0,90,0.00,,,1.12,VWS V14.00,2013-05-06 23:38:00,
2013-05-06 19:43:00,62.4,59.8,29.82,ESE,120,0.0,0.0,91,0.00,,,1.12,VWS V14.00,2013-05-06 23:43:00,
2013-05-06 19:48:00,62.2,59.9,29.82,ESE,120,0.0,0.0,92,0.00,,,1.12,VWS V14.00,2013-05-06 23:48:00,
2013-05-06 19:53:00,61.9,59.5,29.82,ESE,120,0.0,0.0,92,0.00,,,1.12,VWS V14.00,2013-05-06 23:53:00,
2013-05-06 19:58:00,61.7,59.7,29.88,ESE,120,0.0,0.0,93,0.00,,,1.12,VWS V14.00,2013-05-06 23:58:00,
2013-05-06 20:03:00,61.5,59.5,29.88,ESE,120,0.0,0.0,93,0.00,,,1.12,VWS V14.00,2013-05-07 00:03:00,
2013-05-06 20:08:00,61.3,59.3,29.88,ESE,120,0.0,0.0,93,0.00,,,1.12,VWS V14.00,2013-05-07 00:08:00,
2013-05-06 20:13:00,61.0,59.0,29.88,ESE,120,0.0,0.0,93,0.00,,,1.12,VWS V14.00,2013-05-07 00:13:00,
2013-05-06 20:18:00,61.0,59.0,29.88,ESE,120,0.0,0.0,93,0.00,,,1.12,VWS V14.00,2013-05-07 00:18:00,
2013-05-06 20:24:00,60.8,58.8,29.88,ESE,120,0.0,0.0,93,0.00,,,1.12,VWS V14.00,2013-05-07 00:24:00,
2013-05-06 20:29:00,60.6,58.9,29.88,ESE,120,0.0,0.0,94,0.00,,,1.12,VWS V14.00,2013-05-07 00:29:00,
2013-05-06 20:34:00,60.3,58.5,29.88,ESE,120,0.0,0.0,94,0.00,,,1.12,VWS V14.00,2013-05-07 00:34:00,
2013-05-06 20:39:00,60.1,58.3,29.88,ESE,120,0.0,0.0,94,0.00,,,1.12,VWS V14.00,2013-05-07 00:39:00,
2013-05-06 20:44:00,59.9,58.5,29.88,West,278,0.0,0.0,95,0.00,,,1.12,VWS V14.00,2013-05-07 00:44:00,
2013-05-06 20:49:00,59.9,58.5,29.88,West,278,0.0,0.0,95,0.00,,,1.12,VWS V14.00,2013-05-07 00:49:00,
2013-05-06 20:54:00,59.7,58.3,29.88,WNW,300,0.0,0.0,95,0.00,,,1.12,VWS V14.00,2013-05-07 00:54:00,
2013-05-06 20:59:00,59.5,58.1,29.85,NW,322,0.0,0.0,95,0.00,,,1.12,VWS V14.00,2013-05-07 00:59:00,
2013-05-06 21:04:00,59.4,57.9,29.85,SW,232,0.0,0.0,95,0.00,,,1.12,VWS V14.00,2013-05-07 01:04:00,
2013-05-06 21:09:00,59.4,57.9,29.85,SW,232,0.0,0.0,95,0.00,,,1.12,VWS V14.00,2013-05-07 01:09:00,
2013-05-06 21:14:00,59.2,57.8,29.88,SSW,210,0.0,0.0,95,0.00,,,1.12,VWS V14.00,2013-05-07 01:14:00,
2013-05-06 21:19:00,59.2,58.0,29.88,SSW,210,0.0,0.0,96,0.00,,,1.12,VWS V14.00,2013-05-07 01:19:00,
2013-05-06 21:25:00,59.0,57.9,29.88,West,278,0.0,0.0,96,0.00,,,1.12,VWS V14.00,2013-05-07 01:25:00,
2013-05-06 21:30:00,59.0,57.6,29.88,West,278,0.0,0.0,95,0.00,,,1.12,VWS V14.00,2013-05-07 01:30:00,
2013-05-06 21:35:00,59.0,57.6,29.88,West,278,0.0,0.0,95,0.00,,,1.12,VWS V14.00,2013-05-07 01:35:00,
2013-05-06 21:40:00,59.0,57.3,29.88,NNW,345,0.0,0.0,94,0.00,,,1.12,VWS V14.00,2013-05-07 01:40:00,
2013-05-06 21:45:00,58.8,57.4,29.88,South,188,0.0,0.0,95,0.00,,,1.12,VWS V14.00,2013-05-07 01:45:00,
2013-05-06 21:50:00,58.5,57.3,29.88,West,278,0.0,0.0,96,0.04,,,1.16,VWS V14.00,2013-05-07 01:50:00,
2013-05-06 21:55:00,58.1,57.3,29.88,WSW,255,0.0,0.0,97,0.13,,,1.25,VWS V14.00,2013-05-07 01:55:00,
2013-05-06 22:00:00,57.9,57.1,29.88,SSW,210,0.0,0.0,97,0.13,,,1.25,VWS V14.00,2013-05-07 02:00:00,
2013-05-06 22:05:00,57.7,57.2,29.88,SE,142,0.0,0.0,98,0.17,,,1.29,VWS V14.00,2013-05-07 02:05:00,
2013-05-06 22:10:00,57.7,57.2,29.91,ESE,120,0.0,0.0,98,0.21,,,1.33,VWS V14.00,2013-05-07 02:10:00,
2013-05-06 22:15:00,57.6,57.0,29.91,East,98,0.0,0.0,98,0.25,,,1.37,VWS V14.00,2013-05-07 02:15:00,
2013-05-06 22:20:00,57.6,57.0,29.91,ESE,120,0.0,0.0,98,0.25,,,1.37,VWS V14.00,2013-05-07 02:20:00,
2013-05-06 22:26:00,57.6,57.0,29.91,SSE,165,0.0,0.0,98,0.25,,,1.37,VWS V14.00,2013-05-07 02:26:00,
2013-05-06 22:31:00,57.6,57.0,29.91,SSE,165,0.0,0.0,98,0.29,,,1.41,VWS V14.00,2013-05-07 02:31:00,
2013-05-06 22:36:00,57.6,57.0,29.91,SSE,165,0.0,0.0,98,0.33,,,1.45,VWS V14.00,2013-05-07 02:36:00,
2013-05-06 22:41:00,57.6,57.0,29.91,NNW,345,0.0,0.0,98,0.37,,,1.49,VWS V14.00,2013-05-07 02:41:00,
2013-05-06 22:46:00,57.6,57.0,29.91,NNW,345,0.0,0.0,98,0.37,,,1.49,VWS V14.00,2013-05-07 02:46:00,
2013-05-06 22:51:00,57.6,57.0,29.91,NNW,345,0.0,0.0,98,0.37,,,1.49,VWS V14.00,2013-05-07 02:51:00,
2013-05-06 22:56:00,57.6,57.0,29.88,NNW,345,0.0,0.0,98,0.29,,,1.54,VWS V14.00,2013-05-07 02:56:00,
2013-05-06 23:01:00,57.6,57.0,29.88,NNE,30,0.0,0.0,98,0.29,,,1.54,VWS V14.00,2013-05-07 03:01:00,
2013-05-06 23:06:00,57.6,57.0,29.88,ENE,75,0.0,0.0,98,0.25,,,1.54,VWS V14.00,2013-05-07 03:06:00,
2013-05-06 23:11:00,57.6,57.0,29.88,ENE,75,0.0,0.0,98,0.21,,,1.54,VWS V14.00,2013-05-07 03:11:00,
2013-05-06 23:16:00,57.6,57.0,29.88,ENE,75,0.0,0.0,98,0.21,,,1.58,VWS V14.00,2013-05-07 03:16:00,
2013-05-06 23:21:00,57.6,57.0,29.88,SE,142,0.0,0.0,98,0.21,,,1.58,VWS V14.00,2013-05-07 03:21:00,
2013-05-06 23:26:00,57.6,57.0,29.91,SE,142,0.0,0.0,98,0.25,,,1.62,VWS V14.00,2013-05-07 03:26:00,
2013-05-06 23:31:00,57.6,57.0,29.91,WNW,300,0.0,0.0,98,0.21,,,1.62,VWS V14.00,2013-05-07 03:31:00,
2013-05-06 23:37:00,57.6,57.0,29.91,NW,322,0.0,0.0,98,0.21,,,1.66,VWS V14.00,2013-05-07 03:37:00,
2013-05-06 23:42:00,57.6,57.0,29.91,NW,322,0.0,0.0,98,0.17,,,1.66,VWS V14.00,2013-05-07 03:42:00,
2013-05-06 23:47:00,57.6,57.0,29.91,NW,322,0.0,0.0,98,0.17,,,1.66,VWS V14.00,2013-05-07 03:47:00,
2013-05-06 23:52:00,57.6,57.0,29.91,NW,322,0.0,0.0,98,0.17,,,0.00,VWS V14.00,2013-05-07 03:52:00,
2013-05-06 23:57:00,57.6,57.0,29.88,NW,322,0.0,0.0,98,0.12,,,0.00,VWS V14.00,2013-05-07 03:57:00,